Saint Bonnet de Bellac- Haute Vienne - France
Donnes mto: jeudi, 19/01/2012
Date Horaire Temp. E. Hum. E. P.atmo. Pluie Vent Direction Direction Ensoleilleme Solaire P. de rose Temp au vent Rafales
19/01/2012 00:00 5,8 C 89 % 1032,6 hPa 0,0 mm 8,6 km/h (2 Bft) S 180 0 min 0 W/m 4,1 C 3,9 C 8,6 km/h (2 Bft)
19/01/2012 00:10 5,8 C 89 % 1032,4 hPa 0,0 mm 7,2 km/h (2 Bft) S-SO 202 0 min 0 W/m 4,1 C 4,3 C 13,0 km/h (3 Bft)
19/01/2012 00:20 5,8 C 89 % 1032,3 hPa 0,0 mm 8,3 km/h (2 Bft) S-SO 202 0 min 0 W/m 4,1 C 4,0 C 14,0 km/h (3 Bft)
19/01/2012 00:30 5,8 C 89 % 1032,3 hPa 0,0 mm 11,2 km/h (2 Bft) S 180 0 min 0 W/m 4,1 C 3,4 C 16,9 km/h (3 Bft)
19/01/2012 00:40 5,8 C 89 % 1032,2 hPa 0,0 mm 9,7 km/h (2 Bft) S-SO 202 0 min 0 W/m 4,1 C 3,7 C 13,3 km/h (3 Bft)
19/01/2012 00:50 5,8 C 89 % 1032,2 hPa 0,0 mm 16,9 km/h (3 Bft) O-SO 247 0 min 0 W/m 4,1 C 2,5 C 24,1 km/h (4 Bft)
19/01/2012 01:00 5,8 C 89 % 1032,2 hPa 0,0 mm 12,2 km/h (2 Bft) S-SO 202 0 min 0 W/m 4,1 C 3,2 C 14,0 km/h (3 Bft)
19/01/2012 01:10 5,8 C 89 % 1032,2 hPa 0,0 mm 10,8 km/h (2 Bft) S-SO 202 0 min 0 W/m 4,1 C 3,5 C 10,8 km/h (2 Bft)
19/01/2012 01:20 5,8 C 90 % 1032,2 hPa 0,0 mm 4,3 km/h (1 Bft) SO 225 0 min 0 W/m 4,3 C 5,8 C 4,3 km/h (1 Bft)
19/01/2012 01:30 5,8 C 90 % 1032,2 hPa 0,0 mm 7,9 km/h (2 Bft) SO 225 0 min 0 W/m 4,3 C 4,1 C 10,8 km/h (2 Bft)
19/01/2012 01:40 5,8 C 90 % 1032,1 hPa 0,0 mm 8,3 km/h (2 Bft) S-SO 202 0 min 0 W/m 4,3 C 4,0 C 12,6 km/h (3 Bft)
19/01/2012 01:50 5,7 C 91 % 1032,0 hPa 0,0 mm 10,8 km/h (2 Bft) S-SO 202 0 min 0 W/m 4,3 C 3,3 C 11,5 km/h (2 Bft)
19/01/2012 02:02 5,6 C 92 % 1032,1 hPa 0,0 mm 7,6 km/h (2 Bft) S 180 0 min 0 W/m 4,4 C 3,9 C 13,3 km/h (3 Bft)
19/01/2012 02:10 5,6 C 92 % 1032,1 hPa 0,0 mm 9,4 km/h (2 Bft) S-SO 202 0 min 0 W/m 4,4 C 3,5 C 14,8 km/h (3 Bft)
19/01/2012 02:20 5,6 C 93 % 1031,9 hPa 0,0 mm 8,6 km/h (2 Bft) SO 225 0 min 0 W/m 4,6 C 3,7 C 14,4 km/h (3 Bft)
19/01/2012 02:30 5,6 C 93 % 1032,0 hPa 0,0 mm 11,9 km/h (2 Bft) S-SO 202 0 min 0 W/m 4,6 C 3,0 C 15,1 km/h (3 Bft)
19/01/2012 02:40 5,6 C 93 % 1032,1 hPa 0,0 mm 10,8 km/h (2 Bft) S 180 0 min 0 W/m 4,6 C 3,2 C 22,0 km/h (4 Bft)
19/01/2012 02:50 5,6 C 93 % 1032,1 hPa 0,0 mm 10,4 km/h (2 Bft) S-SO 202 0 min 0 W/m 4,6 C 3,3 C 15,8 km/h (3 Bft)
19/01/2012 03:00 5,7 C 93 % 1032,1 hPa 0,0 mm 7,2 km/h (2 Bft) S-SO 202 0 min 0 W/m 4,7 C 4,2 C 7,9 km/h (2 Bft)
19/01/2012 03:10 5,7 C 93 % 1032,2 hPa 0,0 mm 9,4 km/h (2 Bft) S-SO 202 0 min 0 W/m 4,7 C 3,6 C 9,4 km/h (2 Bft)
19/01/2012 03:20 5,6 C 93 % 1032,1 hPa 0,0 mm 6,5 km/h (2 Bft) S-SO 202 0 min 0 W/m 4,6 C 4,3 C 10,8 km/h (2 Bft)
19/01/2012 03:30 5,6 C 93 % 1032,1 hPa 0,1 mm 7,9 km/h (2 Bft) SO 225 0 min 0 W/m 4,6 C 3,9 C 14,8 km/h (3 Bft)
19/01/2012 03:40 5,5 C 93 % 1032,0 hPa 0,0 mm 6,8 km/h (2 Bft) SO 225 0 min 0 W/m 4,5 C 4,1 C 11,5 km/h (2 Bft)
19/01/2012 03:50 5,5 C 94 % 1032,0 hPa 0,0 mm 8,3 km/h (2 Bft) S 180 0 min 0 W/m 4,6 C 3,6 C 9,7 km/h (2 Bft)
19/01/2012 04:00 5,5 C 94 % 1032,0 hPa 0,0 mm 10,4 km/h (2 Bft) S-SO 202 0 min 0 W/m 4,6 C 3,2 C 14,4 km/h (3 Bft)
19/01/2012 04:10 5,6 C 94 % 1031,8 hPa 0,0 mm 6,1 km/h (2 Bft) SO 225 0 min 0 W/m 4,7 C 4,4 C 11,5 km/h (2 Bft)
19/01/2012 04:20 5,6 C 94 % 1031,7 hPa 0,0 mm 9,0 km/h (2 Bft) SO 225 0 min 0 W/m 4,7 C 3,6 C 12,6 km/h (3 Bft)
19/01/2012 04:30 5,6 C 94 % 1031,8 hPa 0,0 mm 7,6 km/h (2 Bft) S-SO 202 0 min 0 W/m 4,7 C 3,9 C 10,8 km/h (2 Bft)
19/01/2012 04:40 5,6 C 94 % 1031,7 hPa 0,0 mm 10,4 km/h (2 Bft) SO 225 0 min 0 W/m 4,7 C 3,3 C 15,1 km/h (3 Bft)
19/01/2012 04:50 5,8 C 94 % 1031,5 hPa 0,0 mm 8,6 km/h (2 Bft) SO 225 0 min 0 W/m 4,9 C 3,9 C 9,0 km/h (2 Bft)
19/01/2012 05:00 5,8 C 94 % 1031,5 hPa 0,0 mm 6,1 km/h (2 Bft) S-SO 202 0 min 0 W/m 4,9 C 4,6 C 8,6 km/h (2 Bft)
19/01/2012 05:10 5,9 C 94 % 1031,6 hPa 0,0 mm 9,0 km/h (2 Bft) S-SO 202 0 min 0 W/m 5,0 C 4,0 C 12,6 km/h (3 Bft)
19/01/2012 05:20 5,9 C 94 % 1031,5 hPa 0,0 mm 10,8 km/h (2 Bft) O 270 0 min 0 W/m 5,0 C 3,6 C 16,9 km/h (3 Bft)
19/01/2012 05:30 6,0 C 94 % 1031,5 hPa 0,0 mm 9,7 km/h (2 Bft) SO 225 0 min 0 W/m 5,1 C 3,9 C 11,2 km/h (2 Bft)
19/01/2012 05:40 6,0 C 94 % 1031,6 hPa 0,0 mm 11,2 km/h (2 Bft) S-SO 202 0 min 0 W/m 5,1 C 3,6 C 19,4 km/h (3 Bft)
19/01/2012 05:50 6,1 C 94 % 1031,5 hPa 0,0 mm 9,4 km/h (2 Bft) S-SO 202 0 min 0 W/m 5,2 C 4,1 C 17,6 km/h (3 Bft)
19/01/2012 06:00 6,2 C 94 % 1031,5 hPa 0,0 mm 9,0 km/h (2 Bft) S-SO 202 0 min 0 W/m 5,3 C 4,3 C 15,1 km/h (3 Bft)
19/01/2012 06:10 6,2 C 94 % 1031,5 hPa 0,0 mm 5,0 km/h (1 Bft) S-SO 202 0 min 0 W/m 5,3 C 5,4 C 11,5 km/h (2 Bft)
19/01/2012 06:20 6,3 C 94 % 1031,6 hPa 0,0 mm 4,0 km/h (1 Bft) O-SO 247 0 min 0 W/m 5,4 C 6,3 C 7,9 km/h (2 Bft)
19/01/2012 06:30 6,3 C 94 % 1031,6 hPa 0,0 mm 4,3 km/h (1 Bft) S-SO 202 0 min 0 W/m 5,4 C 6,3 C 7,6 km/h (2 Bft)
19/01/2012 06:40 6,3 C 94 % 1031,5 hPa 0,0 mm 6,5 km/h (2 Bft) S-SO 202 0 min 0 W/m 5,4 C 5,1 C 6,5 km/h (2 Bft)
19/01/2012 06:50 6,3 C 94 % 1031,5 hPa 0,0 mm 5,8 km/h (2 Bft) S-SO 202 0 min 0 W/m 5,4 C 5,3 C 9,4 km/h (2 Bft)
19/01/2012 07:00 6,3 C 94 % 1031,6 hPa 0,0 mm 4,7 km/h (1 Bft) S-SO 202 0 min 0 W/m 5,4 C 5,7 C 4,7 km/h (1 Bft)
19/01/2012 07:10 6,3 C 94 % 1031,7 hPa 0,0 mm 6,1 km/h (2 Bft) S-SO 202 0 min 0 W/m 5,4 C 5,2 C 12,2 km/h (2 Bft)
19/01/2012 07:20 6,3 C 94 % 1031,7 hPa 0,0 mm 2,9 km/h (1 Bft) S-SO 202 0 min 0 W/m 5,4 C 6,3 C 8,6 km/h (2 Bft)
19/01/2012 07:30 6,3 C 94 % 1031,7 hPa 0,0 mm 3,2 km/h (1 Bft) SO 225 0 min 0 W/m 5,4 C 6,3 C 4,7 km/h (1 Bft)
19/01/2012 07:40 6,3 C 94 % 1031,9 hPa 0,0 mm 5,8 km/h (2 Bft) SO 225 0 min 0 W/m 5,4 C 5,3 C 8,3 km/h (2 Bft)
19/01/2012 07:50 6,3 C 94 % 1031,7 hPa 0,0 mm 10,1 km/h (2 Bft) S-SO 202 0 min 0 W/m 5,4 C 4,2 C 11,9 km/h (2 Bft)
19/01/2012 08:00 6,2 C 94 % 1031,8 hPa 0,0 mm 11,2 km/h (2 Bft) O-SO 247 0 min 0 W/m 5,3 C 3,9 C 18,0 km/h (3 Bft)
19/01/2012 08:10 6,1 C 95 % 1031,8 hPa 0,0 mm 8,6 km/h (2 Bft) S-SO 202 0 min 0 W/m 5,4 C 4,3 C 9,0 km/h (2 Bft)
19/01/2012 08:20 6,1 C 95 % 1031,8 hPa 0,0 mm 6,8 km/h (2 Bft) S-SO 202 0 min 0 W/m 5,4 C 4,7 C 6,8 km/h (2 Bft)
19/01/2012 08:30 6,1 C 95 % 1031,8 hPa 0,0 mm 9,7 km/h (2 Bft) S-SO 202 0 min 0 W/m 5,4 C 4,0 C 15,5 km/h (3 Bft)
19/01/2012 08:40 6,0 C 95 % 1031,8 hPa 0,0 mm 9,4 km/h (2 Bft) S 180 0 min 0 W/m 5,3 C 4,0 C 12,6 km/h (3 Bft)
19/01/2012 08:50 6,0 C 95 % 1032,0 hPa 0,0 mm 9,0 km/h (2 Bft) S 180 2 min 0 W/m 5,3 C 4,1 C 13,0 km/h (3 Bft)
19/01/2012 09:00 6,1 C 95 % 1032,1 hPa 0,0 mm 6,5 km/h (2 Bft) S-SO 202 2 min 0 W/m 5,4 C 4,8 C 7,2 km/h (2 Bft)
19/01/2012 09:10 6,1 C 95 % 1032,1 hPa 0,0 mm 7,6 km/h (2 Bft) S-SO 202 2 min 0 W/m 5,4 C 4,5 C 13,0 km/h (3 Bft)
19/01/2012 09:20 6,1 C 95 % 1032,1 hPa 0,0 mm 9,7 km/h (2 Bft) SO 225 2 min 0 W/m 5,4 C 4,0 C 14,8 km/h (3 Bft)
19/01/2012 09:30 6,2 C 95 % 1032,3 hPa 0,1 mm 5,4 km/h (2 Bft) S-SO 202 2 min 0 W/m 5,5 C 5,3 C 7,6 km/h (2 Bft)
19/01/2012 09:40 6,3 C 95 % 1032,3 hPa 0,0 mm 7,2 km/h (2 Bft) O-SO 247 2 min 0 W/m 5,6 C 4,9 C 12,2 km/h (2 Bft)
19/01/2012 09:50 6,3 C 95 % 1032,4 hPa 0,0 mm 2,9 km/h (1 Bft) S 180 2 min 0 W/m 5,6 C 6,3 C 2,9 km/h (1 Bft)
19/01/2012 10:00 6,3 C 95 % 1032,3 hPa 0,0 mm 6,8 km/h (2 Bft) SO 225 2 min 0 W/m 5,6 C 5,0 C 11,5 km/h (2 Bft)
19/01/2012 10:10 6,4 C 95 % 1032,3 hPa 0,0 mm 8,3 km/h (2 Bft) O-SO 247 2 min 0 W/m 5,7 C 4,7 C 11,5 km/h (2 Bft)
19/01/2012 10:20 6,4 C 95 % 1032,3 hPa 0,0 mm 7,6 km/h (2 Bft) S-SO 202 2 min 0 W/m 5,7 C 4,9 C 7,9 km/h (2 Bft)
19/01/2012 10:30 6,6 C 95 % 1032,2 hPa 0,0 mm 7,6 km/h (2 Bft) SO 225 2 min 0 W/m 5,9 C 5,1 C 9,7 km/h (2 Bft)
19/01/2012 10:40 6,8 C 95 % 1032,1 hPa 0,1 mm 5,0 km/h (1 Bft) SO 225 2 min 0 W/m 6,1 C 6,1 C 6,5 km/h (2 Bft)
19/01/2012 10:50 6,9 C 95 % 1032,1 hPa 0,0 mm 8,3 km/h (2 Bft) SO 225 2 min 0 W/m 6,2 C 5,3 C 8,3 km/h (2 Bft)
19/01/2012 11:00 6,9 C 95 % 1032,2 hPa 0,0 mm 11,5 km/h (2 Bft) S-SO 202 2 min 0 W/m 6,2 C 4,6 C 17,6 km/h (3 Bft)
19/01/2012 11:10 6,9 C 95 % 1032,2 hPa 0,0 mm 8,6 km/h (2 Bft) SO 225 2 min 0 W/m 6,2 C 5,2 C 8,6 km/h (2 Bft)
19/01/2012 11:20 7,1 C 95 % 1032,3 hPa 0,0 mm 9,7 km/h (2 Bft) S-SO 202 2 min 0 W/m 6,4 C 5,2 C 11,2 km/h (2 Bft)
19/01/2012 11:30 7,2 C 96 % 1032,3 hPa 0,0 mm 5,0 km/h (1 Bft) SO 225 2 min 0 W/m 6,6 C 6,6 C 7,2 km/h (2 Bft)
19/01/2012 11:40 7,3 C 96 % 1032,2 hPa 0,0 mm 7,2 km/h (2 Bft) S-SO 202 2 min 0 W/m 6,7 C 6,0 C 9,4 km/h (2 Bft)
19/01/2012 11:50 7,5 C 96 % 1032,3 hPa 0,0 mm 3,6 km/h (1 Bft) S-SO 202 2 min 0 W/m 6,9 C 7,5 C 6,5 km/h (2 Bft)
19/01/2012 12:00 7,8 C 96 % 1032,0 hPa 0,0 mm 11,5 km/h (2 Bft) O-SO 247 2 min 0 W/m 7,2 C 5,7 C 11,5 km/h (2 Bft)
19/01/2012 12:10 8,1 C 96 % 1032,0 hPa 0,0 mm 8,6 km/h (2 Bft) S-SO 202 2 min 0 W/m 7,5 C 6,6 C 14,0 km/h (3 Bft)
19/01/2012 12:20 8,2 C 95 % 1031,9 hPa 0,0 mm 9,0 km/h (2 Bft) O-SO 247 2 min 0 W/m 7,4 C 6,7 C 18,4 km/h (3 Bft)
19/01/2012 12:30 8,3 C 95 % 1031,8 hPa 0,0 mm 8,6 km/h (2 Bft) SO 225 2 min 0 W/m 7,5 C 6,9 C 13,3 km/h (3 Bft)
19/01/2012 12:40 8,3 C 95 % 1031,5 hPa 0,0 mm 7,9 km/h (2 Bft) SO 225 2 min 0 W/m 7,5 C 7,0 C 9,4 km/h (2 Bft)
19/01/2012 12:50 8,4 C 95 % 1031,5 hPa 0,0 mm 5,4 km/h (2 Bft) S-SO 202 2 min 0 W/m 7,6 C 7,8 C 11,9 km/h (2 Bft)
19/01/2012 13:00 8,5 C 95 % 1031,5 hPa 0,0 mm 8,3 km/h (2 Bft) O-SO 247 2 min 0 W/m 7,7 C 7,2 C 8,3 km/h (2 Bft)
19/01/2012 13:10 8,5 C 95 % 1031,3 hPa 0,0 mm 6,1 km/h (2 Bft) SO 225 2 min 0 W/m 7,7 C 7,7 C 7,6 km/h (2 Bft)
19/01/2012 13:20 8,6 C 95 % 1031,1 hPa 0,0 mm 10,8 km/h (2 Bft) S 180 2 min 0 W/m 7,8 C 6,8 C 16,9 km/h (3 Bft)
19/01/2012 13:30 8,6 C 95 % 1030,8 hPa 0,0 mm 5,8 km/h (2 Bft) S-SO 202 2 min 0 W/m 7,8 C 7,9 C 8,6 km/h (2 Bft)
19/01/2012 13:40 8,6 C 95 % 1030,6 hPa 0,1 mm 11,9 km/h (2 Bft) SO 225 2 min 0 W/m 7,8 C 6,6 C 19,1 km/h (3 Bft)
19/01/2012 13:50 8,6 C 95 % 1030,4 hPa 0,0 mm 12,6 km/h (3 Bft) O-SO 247 2 min 0 W/m 7,8 C 6,5 C 14,0 km/h (3 Bft)
19/01/2012 14:00 8,8 C 95 % 1030,3 hPa 0,0 mm 8,3 km/h (2 Bft) SO 225 2 min 0 W/m 8,0 C 7,5 C 10,8 km/h (2 Bft)
19/01/2012 14:10 8,8 C 96 % 1030,4 hPa 0,0 mm 7,2 km/h (2 Bft) S-SO 202 2 min 0 W/m 8,2 C 7,8 C 9,0 km/h (2 Bft)
19/01/2012 14:20 8,8 C 96 % 1030,4 hPa 0,0 mm 9,0 km/h (2 Bft) S-SO 202 2 min 0 W/m 8,2 C 7,4 C 13,3 km/h (3 Bft)
19/01/2012 14:30 8,8 C 95 % 1030,2 hPa 0,0 mm 8,3 km/h (2 Bft) SO 225 2 min 0 W/m 8,0 C 7,5 C 11,9 km/h (2 Bft)
19/01/2012 14:40 8,8 C 95 % 1030,2 hPa 0,0 mm 11,2 km/h (2 Bft) SO 225 2 min 0 W/m 8,0 C 7,0 C 14,8 km/h (3 Bft)
19/01/2012 14:50 8,7 C 95 % 1030,1 hPa 0,0 mm 7,9 km/h (2 Bft) S-SO 202 2 min 0 W/m 7,9 C 7,5 C 7,9 km/h (2 Bft)
19/01/2012 15:00 8,8 C 96 % 1030,0 hPa 0,0 mm 6,1 km/h (2 Bft) SO 225 2 min 0 W/m 8,2 C 8,1 C 11,9 km/h (2 Bft)
19/01/2012 15:10 8,9 C 96 % 1029,9 hPa 0,0 mm 5,8 km/h (2 Bft) SO 225 2 min 0 W/m 8,3 C 8,3 C 7,2 km/h (2 Bft)
19/01/2012 15:20 9,1 C 96 % 1029,8 hPa 0,0 mm 8,3 km/h (2 Bft) O-SO 247 2 min 0 W/m 8,5 C 7,9 C 11,5 km/h (2 Bft)
19/01/2012 15:30 9,2 C 96 % 1029,8 hPa 0,0 mm 9,4 km/h (2 Bft) SO 225 2 min 0 W/m 8,6 C 7,8 C 10,8 km/h (2 Bft)
19/01/2012 15:40 9,3 C 96 % 1029,8 hPa 0,0 mm 9,4 km/h (2 Bft) S-SO 202 2 min 0 W/m 8,7 C 7,9 C 9,7 km/h (2 Bft)
19/01/2012 15:50 9,3 C 96 % 1029,8 hPa 0,0 mm 8,3 km/h (2 Bft) O-SO 247 2 min 0 W/m 8,7 C 8,1 C 14,0 km/h (3 Bft)
19/01/2012 16:00 9,2 C 96 % 1029,6 hPa 0,0 mm 7,9 km/h (2 Bft) S-SO 202 2 min 0 W/m 8,6 C 8,1 C 10,4 km/h (2 Bft)
19/01/2012 16:10 9,3 C 96 % 1029,5 hPa 0,0 mm 7,6 km/h (2 Bft) SO 225 2 min 0 W/m 8,7 C 8,3 C 11,9 km/h (2 Bft)
19/01/2012 16:20 9,3 C 96 % 1029,6 hPa 0,0 mm 8,3 km/h (2 Bft) S-SO 202 2 min 0 W/m 8,7 C 8,1 C 12,2 km/h (2 Bft)
19/01/2012 16:30 9,4 C 96 % 1029,6 hPa 0,0 mm 6,5 km/h (2 Bft) S-SO 202 2 min 0 W/m 8,8 C 8,7 C 10,8 km/h (2 Bft)
19/01/2012 16:40 9,3 C 96 % 1029,6 hPa 0,0 mm 6,1 km/h (2 Bft) S-SO 202 2 min 0 W/m 8,7 C 8,6 C 11,2 km/h (2 Bft)
19/01/2012 16:50 9,3 C 96 % 1029,5 hPa 0,1 mm 5,4 km/h (2 Bft) SO 225 2 min 0 W/m 8,7 C 8,8 C 13,7 km/h (3 Bft)
19/01/2012 17:00 9,3 C 96 % 1029,5 hPa 0,0 mm 6,1 km/h (2 Bft) S-SO 202 2 min 0 W/m 8,7 C 8,6 C 8,3 km/h (2 Bft)
19/01/2012 17:10 9,4 C 96 % 1029,5 hPa 0,0 mm 5,8 km/h (2 Bft) S-SO 202 2 min 0 W/m 8,8 C 8,8 C 9,4 km/h (2 Bft)
19/01/2012 17:20 9,4 C 96 % 1029,4 hPa 0,0 mm 6,8 km/h (2 Bft) SO 225 2 min 0 W/m 8,8 C 8,6 C 7,6 km/h (2 Bft)
19/01/2012 17:30 9,4 C 96 % 1029,6 hPa 0,0 mm 7,9 km/h (2 Bft) S-SO 202 2 min 0 W/m 8,8 C 8,3 C 11,5 km/h (2 Bft)
19/01/2012 17:40 9,5 C 96 % 1029,7 hPa 0,0 mm 5,0 km/h (1 Bft) SO 225 0 min 0 W/m 8,9 C 9,2 C 9,4 km/h (2 Bft)
19/01/2012 17:50 9,6 C 96 % 1029,6 hPa 0,0 mm 5,4 km/h (2 Bft) SO 225 0 min 0 W/m 9,0 C 9,2 C 9,4 km/h (2 Bft)
19/01/2012 18:00 9,7 C 96 % 1029,6 hPa 0,0 mm 6,1 km/h (2 Bft) O-SO 247 0 min 0 W/m 9,1 C 9,1 C 7,2 km/h (2 Bft)
19/01/2012 18:10 9,8 C 96 % 1029,6 hPa 0,0 mm 4,3 km/h (1 Bft) SO 225 0 min 0 W/m 9,2 C 9,8 C 9,0 km/h (2 Bft)
19/01/2012 18:20 9,8 C 96 % 1029,7 hPa 0,0 mm 5,8 km/h (2 Bft) SO 225 0 min 0 W/m 9,2 C 9,3 C 6,5 km/h (2 Bft)
19/01/2012 18:30 9,8 C 96 % 1029,6 hPa 0,0 mm 3,2 km/h (1 Bft) SO 225 0 min 0 W/m 9,2 C 9,8 C 8,3 km/h (2 Bft)
19/01/2012 18:40 9,8 C 96 % 1029,5 hPa 0,0 mm 6,5 km/h (2 Bft) S-SO 202 0 min 0 W/m 9,2 C 9,1 C 9,0 km/h (2 Bft)
19/01/2012 18:50 9,8 C 95 % 1029,5 hPa 0,0 mm 4,7 km/h (1 Bft) S-SO 202 0 min 0 W/m 9,0 C 9,6 C 7,2 km/h (2 Bft)
19/01/2012 19:00 9,8 C 95 % 1029,4 hPa 0,1 mm 3,2 km/h (1 Bft) SO 225 0 min 0 W/m 9,0 C 9,8 C 3,2 km/h (1 Bft)
19/01/2012 19:10 9,8 C 95 % 1029,4 hPa 0,0 mm 1,1 km/h (1 Bft) S-SO 202 0 min 0 W/m 9,0 C 9,8 C 3,6 km/h (1 Bft)
19/01/2012 19:20 9,8 C 95 % 1029,5 hPa 0,0 mm 4,0 km/h (1 Bft) S-SO 202 0 min 0 W/m 9,0 C 9,8 C 7,6 km/h (2 Bft)
19/01/2012 19:30 9,8 C 95 % 1029,4 hPa 0,0 mm 4,7 km/h (1 Bft) O-SO 247 0 min 0 W/m 9,0 C 9,6 C 4,7 km/h (1 Bft)
19/01/2012 19:40 9,8 C 95 % 1029,4 hPa 0,0 mm 2,9 km/h (1 Bft) SO 225 0 min 0 W/m 9,0 C 9,8 C 7,2 km/h (2 Bft)
19/01/2012 19:50 9,8 C 94 % 1029,3 hPa 0,0 mm 1,1 km/h (1 Bft) O-SO 247 0 min 0 W/m 8,9 C 9,8 C 7,6 km/h (2 Bft)
19/01/2012 20:00 9,7 C 94 % 1029,4 hPa 0,0 mm 3,6 km/h (1 Bft) O-SO 247 0 min 0 W/m 8,8 C 9,7 C 8,6 km/h (2 Bft)
19/01/2012 20:10 9,7 C 94 % 1029,3 hPa 0,0 mm 6,5 km/h (2 Bft) O-SO 247 0 min 0 W/m 8,8 C 9,0 C 7,2 km/h (2 Bft)
19/01/2012 20:20 9,6 C 94 % 1029,0 hPa 0,0 mm 9,7 km/h (2 Bft) O-SO 247 0 min 0 W/m 8,7 C 8,2 C 9,7 km/h (2 Bft)
19/01/2012 20:30 9,6 C 94 % 1029,0 hPa 0,0 mm 2,5 km/h (1 Bft) SO 225 0 min 0 W/m 8,7 C 9,6 C 6,5 km/h (2 Bft)
19/01/2012 20:40 9,6 C 93 % 1029,1 hPa 0,0 mm 3,6 km/h (1 Bft) SO 225 0 min 0 W/m 8,5 C 9,6 C 4,3 km/h (1 Bft)
19/01/2012 20:50 9,5 C 93 % 1029,0 hPa 0,0 mm 2,5 km/h (1 Bft) O-SO 247 0 min 0 W/m 8,4 C 9,5 C 6,5 km/h (2 Bft)
19/01/2012 21:00 9,5 C 93 % 1028,8 hPa 0,0 mm 5,4 km/h (2 Bft) O-SO 247 0 min 0 W/m 8,4 C 9,1 C 11,9 km/h (2 Bft)
19/01/2012 21:10 9,5 C 93 % 1028,9 hPa 0,0 mm 1,8 km/h (1 Bft) O 270 0 min 0 W/m 8,4 C 9,5 C 7,9 km/h (2 Bft)
19/01/2012 21:20 9,4 C 93 % 1028,8 hPa 0,0 mm 5,0 km/h (1 Bft) O-SO 247 0 min 0 W/m 8,3 C 9,1 C 9,4 km/h (2 Bft)
19/01/2012 21:30 9,4 C 92 % 1028,7 hPa 0,0 mm 5,8 km/h (2 Bft) S-SO 202 0 min 0 W/m 8,2 C 8,8 C 10,1 km/h (2 Bft)
19/01/2012 21:40 9,4 C 92 % 1028,8 hPa 0,0 mm 5,8 km/h (2 Bft) S-SO 202 0 min 0 W/m 8,2 C 8,8 C 14,4 km/h (3 Bft)
19/01/2012 21:50 9,4 C 92 % 1028,6 hPa 0,0 mm 6,8 km/h (2 Bft) SO 225 0 min 0 W/m 8,2 C 8,6 C 6,8 km/h (2 Bft)
19/01/2012 22:00 9,4 C 91 % 1028,4 hPa 0,0 mm 9,7 km/h (2 Bft) O-SO 247 0 min 0 W/m 8,0 C 8,0 C 18,4 km/h (3 Bft)
19/01/2012 22:10 9,4 C 92 % 1028,5 hPa 0,0 mm 14,4 km/h (3 Bft) S-SO 202 0 min 0 W/m 8,2 C 7,3 C 20,5 km/h (4 Bft)
19/01/2012 22:20 9,4 C 92 % 1028,4 hPa 0,0 mm 4,7 km/h (1 Bft) SO 225 0 min 0 W/m 8,2 C 9,2 C 11,2 km/h (2 Bft)
19/01/2012 22:30 9,4 C 91 % 1028,5 hPa 0,0 mm 6,8 km/h (2 Bft) O-SO 247 0 min 0 W/m 8,0 C 8,6 C 10,1 km/h (2 Bft)
19/01/2012 22:40 9,4 C 91 % 1028,5 hPa 0,0 mm 5,4 km/h (2 Bft) SO 225 0 min 0 W/m 8,0 C 9,0 C 8,6 km/h (2 Bft)
19/01/2012 22:50 9,4 C 92 % 1028,3 hPa 0,0 mm 13,3 km/h (3 Bft) SO 225 0 min 0 W/m 8,2 C 7,4 C 16,2 km/h (3 Bft)
19/01/2012 23:00 9,5 C 92 % 1028,1 hPa 0,0 mm 4,3 km/h (1 Bft) S-SO 202 0 min 0 W/m 8,3 C 9,5 C 8,3 km/h (2 Bft)
19/01/2012 23:10 9,5 C 92 % 1028,0 hPa 0,0 mm 6,5 km/h (2 Bft) S-SO 202 0 min 0 W/m 8,3 C 8,8 C 10,1 km/h (2 Bft)
19/01/2012 23:20 9,5 C 92 % 1027,9 hPa 0,0 mm 6,8 km/h (2 Bft) SO 225 0 min 0 W/m 8,3 C 8,7 C 9,4 km/h (2 Bft)
_ Min-Heure 04:00 01:10 23:20 - 19:50 - - - - 01:10 00:50 09:50
Minimum _ 5,5 C 89 % 1027,9 hPa - 1,1 km/h (1 Bft) - - - - 4,1 C 2,5 C 2,9 km/h (1 Bft)
_ Max-Heure 19:50 18:40 00:00 19:00 00:50 - - 17:30 23:20 18:40 19:50 00:50
Maximum _ 9,8 C 96 % 1032,6 hPa 0,1 mm 16,9 km/h
O-SO (3 Bft)
- - 2 min 0 W/m 9,2 C 9,8 C 24,1 km/h
O-SO (4 Bft)
Moyenne _ 7,6 C 94 % 1030,8 hPa #0,6 mm 7,4 km/h (2 Bft) S-SO - #1:46 h 0 W/m 6,7 C 6,4 C 10,9 km/h (2 Bft)
Saint Bonnet de Bellac- Haute Vienne - France